Regional Weather Roundup
Issued by NWS

Current Version | Previous Version | Text Only | Print | Product List | Glossary On
Versions: 1 2 3 4 5 6 7 8 9 10 11 12 13 14 15 16 17 18 19 20 21 22 23 24 25 26 27 28 29 30 31 32 33 34 35 36 37 38 39 40 41 42 43 44 45 46 47 48 49 50
608
ASUS43 KMKX 300811
RWRWI

WISCONSIN REGIONAL WEATHER ROUNDUP
NATIONAL WEATHER SERVICE MILWAUKEE/SULLIVAN WI
300 AM CDT SUN APR 30 2017

NOTE: "FAIR" INDICATES FEW OR NO CLOUDS BELOW 12,000 FEET WITH NO
SIGNIFICANT WEATHER AND/OR OBSTRUCTIONS TO VISIBILITY.

WIZ001-002-006>008-014>016-023>028-300900-
NORTHWEST WISCONSIN

CITY           SKY/WX    TMP DP  RH WIND       PRES   REMARKS
SUPERIOR ARPT  CLOUDY    37  19  48 NE9       30.24F WCI  30
ASHLAND        CLOUDY    36  27  69 NE7       30.25S WCI  30
HAYWARD        MOCLDY    38  22  52 NE10      30.19F WCI  31
SIREN          CLOUDY    40  20  44 NE3       30.18F
CUMBERLAND     CLOUDY    39  21  48 NE10      30.16S WCI  32
RICE LAKE      CLOUDY    41  22  47 NE10      30.18R
CHETEK         CLOUDY    42  24  48 NE7       30.17R
LADYSMITH      CLOUDY    41  21  45 NE10      30.17F
EAU CLAIRE     CLOUDY    44  26  49 NE9       30.13F
MENOMONIE      CLOUDY    44  26  48 NE8       30.15R
NEW RICHMOND   CLOUDY    42  24  48 E12       30.14F
OSCEOLA        CLOUDY    43  26  52 NE7       30.18F
$$

WIZ003>005-009-010-017-018-300900-
NORTH CENTRAL WISCONSIN

CITY           SKY/WX    TMP DP  RH WIND       PRES   REMARKS
MANITOWISH WTR NOT AVBL
ARBOR VITAE    MOCLDY    39  21  48 CALM      30.18S
WOODRUFF       MOCLDY    39  21  48 CALM      30.18S
RHINELANDER    MOCLDY    38  21  50 E9        30.19R WCI  31
EAGLE RIVER    CLOUDY    36  18  48 E6        30.18F WCI  31
LAND O LAKES   CLOUDY    36  20  53 NE5       30.21S WCI  32
PHILLIPS       CLOUDY    37  21  52 NE8       30.17R WCI  31
TOMAHAWK       CLOUDY    38  20  49 E6        30.18S WCI  33
MEDFORD        MOCLDY    38  22  50 E14       30.15S WCI  30
MERRILL        CLOUDY    39  22  49 E7        30.18S WCI  34
$$

WIZ029-030-035-036-043>047-300900-
CENTRAL WISCONSIN

CITY           SKY/WX    TMP DP  RH WIND       PRES   REMARKS
WAUSAU         CLOUDY    39  22  50 E8        30.14F WCI  33
MOSINEE        CLOUDY    37  23  56 NE14      30.16S WCI  29
MARSHFIELD     CLOUDY    41  20  43 E13       30.11F
STEVENS POINT  CLOUDY    38  24  57 NE9       30.15F WCI  32
WAUPACA        CLOUDY    42  31  65 NE9G20    30.13F
WAUTOMA        CLOUDY    40  32  73 NE18      30.10F WCI  31
WISC RAPIDS    CLOUDY    42  26  53 E16G22    30.13F
CAMP DOUGLAS   CLOUDY    42  30  62 NE12G17   30.07F
$$

WIZ011>013-019>022-031-037>040-048>050-300900-
NORTHEAST WISCONSIN

CITY           SKY/WX    TMP DP  RH WIND       PRES   REMARKS
ANTIGO         CLOUDY    36  23  58 E12       30.16F WCI  28
SHAWANO        CLOUDY    42  28  57 NE10G18   30.19F
OCONTO         CLOUDY    40  29  65 NE6G17    30.20F
STURGEON BAY   CLOUDY    40  29  64 NE12      30.20S WCI  33
GREEN BAY      CLOUDY    41  36  82 NE16      30.17F
MANITOWOC      CLOUDY    39  36  89 NE13G18   30.13F WCI  31
APPLETON       CLOUDY    37  34  87 NE15G21   30.10F WCI  28
CLINTONVILLE   CLOUDY    39  27  60 NE9       30.16F WCI  33
OSHKOSH        LGT RAIN  40  36  86 NE16G29   30.08F WCI  31
$$

WIZ032>034-041-042-053>061-300900-
SOUTHWEST WISCONSIN

CITY           SKY/WX    TMP DP  RH WIND       PRES   REMARKS
LA CROSSE      CLOUDY    46  28  49 NE9       30.07F
SPARTA         CLOUDY    43  30  59 E15       30.09F
VIROQUA        CLOUDY    40  31  70 NE18G29   30.04F WCI  31
BOSCOBEL       CLOUDY    42  36  79 NE13G20   30.02F
PRAIRIE DU CHI CLOUDY    43  35  73 NE8       30.00F
PLATTEVILLE    CLOUDY    40  40  98 NE16      29.97F WCI  32
$$

WIZ056-057-062-063-064-067-068-300900-
SOUTH CENTRAL WISCONSIN

CITY           SKY/WX    TMP DP  RH WIND       PRES   REMARKS
REEDSBURG      CLOUDY    37  37  98 NE12G18   30.07  WCI  30
BARABOO/DELLS  CLOUDY    37  35  93 NE14G21   30.05F WCI  28
LONE ROCK      CLOUDY    40  36  86 NE12      30.02F WCI  33
MINERAL POINT  CLOUDY    39  39 100 NE21G26   29.96F WCI  29
MADISON        CLOUDY    39  36  89 NE16      30.02F WCI  30
MIDDLETON      CLOUDY    40  38  93 NE16G25   30.01F WCI  31
WATERTOWN      CLOUDY    40  40 100 NE10      30.03F WCI  34
MONROE         CLOUDY    41  39  93 NE21G26   29.94F
JANESVILLE     CLOUDY    43  41  93 NE17G24   29.97F
$$

WIZ051-052-058>065-066-070>072-300900-
SOUTHEAST WISCONSIN

CITY           SKY/WX    TMP DP  RH WIND       PRES   REMARKS
MILWAUKEE      CLOUDY    41  40  96 NE18G25   30.03F
WAUKESHA       CLOUDY    37  36  93 NE15G24   30.02F FOG     WCI  28
MILWAUKEE/TIMM DRIZZLE   37  36  93 NE13G22   30.04F WCI  29
RACINE         CLOUDY    41  39  93 NE18G26   30.02F FOG
KENOSHA        CLOUDY    41  39  93 NE21G28   29.99F FOG
FOND DU LAC    LGT RAIN  40  35  83 NE20G32   30.09F WCI  30
SHEBOYGAN      LGT RAIN  40  37  89 NE20G28   30.08F WCI  30
WEST BEND      MIX PCPN  37  37 100 E16G25    30.05F WCI  28
JUNEAU         CLOUDY    38  37  95 NE13G21   30.06F WCI  30
$$

LSZ147-162-300900-
LAKE SUPERIOR

STATION/POSITION TIME  TEMP    WIND        PRES    WAVE
                       AIR SEA DIR/SP/G            HT/PER
                 (UTC) (F)     (DEG/KT/KT) (MB)    (FT/S)
DEVILS ISLAND    0800   37      40/ 13/ 14 1025.3F
PORT WING        0740   37      40/ 13/ 16 1024.0F
SAXON HARBOR     0730   37      50/  5/  6 1023.7F
$$

LMZ867-665-643>646-300900-
LAKE MICHIGAN

STATION/POSITION TIME  TEMP    WIND        PRES    WAVE
                       AIR SEA DIR/SP/G            HT/PER
                 (UTC) (F)     (DEG/KT/KT) (MB)    (FT/S)
CHAMBERS ISLAND  0740   39      30/ 11/ 17 1023.0R
N MID LAKE BUOY  0750   38 37   50/ 14/ 17 1024.0R   3/ 4
NORTHPORT PIER   0740   40      50/ 11/ 15 1023.0R
KEWAUNEE LAKESHO 0748   39      30/ 14/ 21 1021.4F
SHEBOYGAN LAKESH 0800   39      30/ 22/ 26 1019.1F
PORT WASHINGTON  0730   41      40/ 21/ 25 1019.3F
MILWAUKEE LAKESH 0750   40      30/ 20/ 23   N/A
S MID LAKE BUOY  0650   41 41   40/ 17/ 21 1016.3R   6/ 6
KENOSHA   LAKESH 0800   41      40/ 23/ 28 1015.6
$$

TC  - TEMPERATURE IN CELSIUS
VSB - VISIBILITY IN STATUTE MILES
WCI - WIND CHILL INDEX
HX  - HEAT INDEX





USA.gov is the U.S. government's official web portal to all federal, state and local government web resources and services.